Location: Austin
(30.3000°N, 97.7500°W)
Time: 18:52:02
(UTC-06:00)

Cosmos 2360 - Pass Details

Date: 31 October 2024
Orbit: 846 x 855 km, 70.8° (Epoch: 05 November)

Event Time Altitude Azimuth Distance (km) Brightness Sun altitude
Exits shadow 05:39:16 20° 187° (S) 1,857 5.9 -27.6°
Maximum altitude 05:43:14 70° 107° (ESE) 906 4.4 -26.7°
Drops below altitude 10° 05:48:54 10° 25° (NNE) 2,484 6.9 -25.5°
Sets 05:51:22 0° 23° (NNE) 3,422 7.6 -25.0°
